Location: Lane
(33.5226°N, 79.8788°W)
Time: 12:39:31
(UTC+00:00)

Courier 1B Rocket - All Passes

Search period start: 05 October 2022 00:00
Search period end: 15 October 2022 00:00
Orbit: 920 x 1202 km, 28.2° (Epoch: 04 October)

Date Brightness Start Highest point End Pass type
(mag) Time Alt. Az. Time Alt. Az. Time Alt. Az.
05 Oct - 01:33:12 10° WSW 01:39:38 54° S 01:45:44 10° ESE visible
05 Oct - 03:26:51 10° W 03:32:39 37° SSW 03:38:19 10° SE visible
05 Oct - 05:21:47 10° WSW 05:25:20 16° SSW 05:28:54 10° S night (unlit)
05 Oct - 20:47:56 10° SSW 20:52:29 17° SSE 20:56:52 10° ESE daylight
05 Oct - 22:38:59 10° SW 22:45:28 38° SSE 22:51:34 10° E daylight
06 Oct - 00:32:01 10° WSW 00:38:38 55° S 00:44:51 10° ESE visible
06 Oct - 02:25:35 10° W 02:31:45 45° SSW 02:37:40 10° ESE visible
06 Oct - 04:19:50 10° WSW 04:24:32 22° SSW 04:29:12 10° SSE night (unlit)
06 Oct - 19:48:46 10° S 19:51:29 12° SSE 19:54:10 10° SE daylight
06 Oct - 21:38:10 10° SW 21:44:27 32° SSE 21:50:23 10° E daylight
06 Oct - 23:30:49 10° WSW 23:37:37 52° S 23:43:56 10° E visible
07 Oct - 01:24:19 10° W 01:30:48 52° S 01:36:55 10° ESE visible
07 Oct - 03:18:16 10° W 03:23:43 30° SSW 03:29:02 10° SE visible
07 Oct - 20:37:34 10° SSW 20:43:25 25° SSE 20:49:00 10° ESE daylight
07 Oct - 22:29:40 10° WSW 22:36:33 47° SSE 22:42:58 10° E daylight
08 Oct - 00:23:03 10° WSW 00:29:48 55° S 00:36:06 10° ESE visible
08 Oct - 02:16:51 10° W 02:22:52 38° SSW 02:28:36 10° SE visible
08 Oct - 04:11:59 10° WSW 04:15:32 15° SSW 04:19:02 10° S night (unlit)
08 Oct - 19:37:23 10° SSW 19:42:23 19° SSE 19:47:14 10° ESE daylight
08 Oct - 21:28:37 10° SW 21:35:28 40° SSE 21:41:53 10° E daylight
08 Oct - 23:21:46 10° WSW 23:28:44 56° S 23:35:13 10° ESE visible
09 Oct - 01:15:29 10° W 01:21:56 46° SSW 01:28:01 10° ESE visible
09 Oct - 03:09:53 10° WSW 03:14:45 22° SSW 03:19:27 10° SSE visible
09 Oct - 18:37:59 10° S 18:41:21 13° SSE 18:44:41 10° ESE daylight
09 Oct - 20:27:44 10° SW 20:34:23 33° SSE 20:40:41 10° E daylight
09 Oct - 22:20:30 10° WSW 22:27:38 54° S 22:34:17 10° E daylight
10 Oct - 00:14:07 10° W 00:20:56 53° S 00:27:17 10° ESE visible
10 Oct - 02:08:12 10° W 02:13:55 30° SSW 02:19:22 10° SE visible
10 Oct - 19:27:06 10° SSW 19:33:18 27° SSE 19:39:14 10° ESE daylight
10 Oct - 21:19:17 10° WSW 21:26:30 49° S 21:33:16 10° E daylight
10 Oct - 23:12:46 10° W 23:19:52 57° S 23:26:27 10° ESE visible
11 Oct - 01:06:41 10° W 01:13:01 39° SSW 01:18:58 10° SE visible
11 Oct - 03:01:59 10° WSW 03:05:42 16° SSW 03:09:19 10° S visible
11 Oct - 18:26:53 10° SSW 18:32:13 20° SSE 18:37:26 10° ESE daylight
11 Oct - 20:18:13 10° SW 20:25:21 42° SSE 20:32:07 10° E daylight
11 Oct - 22:11:25 10° WSW 22:18:44 57° S 22:25:32 10° ESE daylight
12 Oct - 00:05:14 10° W 00:12:02 47° SSW 00:18:22 10° ESE visible
12 Oct - 01:59:47 10° WSW 02:04:54 23° SSW 02:09:48 10° SSE visible
12 Oct - 17:27:26 10° S 17:31:10 14° SSE 17:34:53 10° ESE daylight
12 Oct - 19:17:19 10° SW 19:24:12 35° SSE 19:30:51 10° E daylight
12 Oct - 21:10:07 10° WSW 21:17:33 55° S 21:24:32 10° E daylight
12 Oct - 23:03:48 10° W 23:10:58 54° S 23:17:37 10° ESE visible
13 Oct - 00:57:59 10° W 01:04:01 31° SSW 01:09:42 10° SE visible
13 Oct - 18:16:43 10° SSW 18:23:05 28° SSE 18:29:19 10° ESE daylight
13 Oct - 20:08:55 10° WSW 20:16:21 50° S 20:23:26 10° E daylight
13 Oct - 22:02:24 10° W 22:09:49 58° S 22:16:44 10° ESE daylight
13 Oct - 23:56:24 10° W 00:03:04 40° SSW 00:09:18 10° SE visible
14 Oct - 01:51:47 10° WSW 01:55:48 16° SSW 01:59:42 10° S visible
14 Oct - 17:16:31 10° SSW 17:21:59 21° SSE 17:27:26 10° ESE daylight
14 Oct - 19:07:50 10° SW 19:15:08 43° SSE 19:22:13 10° E daylight
14 Oct - 21:01:03 10° WSW 21:08:36 59° S 21:15:45 10° E daylight
14 Oct - 22:54:53 10° W 23:02:01 48° SSW 23:08:40 10° ESE daylight
